BOTAN

基本信息
目录编号:
65943
目录名称:
BOTAN
国际标识:
1998-067XQ
轨道中心:
EARTH
卫星名称:
BOTAN
卫星全名:
BOTAN
卫星状态:
在轨 (已飞行9885 天)
发射日期:
1998-11-20 UTC
国别 :
(ISS)
星等 :
--
轨道信息
数据来源 国际轨道数据
星历时间: 2025-12-10T14:39:08+0800
3天前
查看轨道信息
半长轴: 6768.675km
偏心率: 0.0005251
轨道倾角: 51.630°
近地点辐角 191.227°
升交点赤经 152.346°
平近点角 168.861°
近地点: 386.985km
远地点: 394.095km
周期: 92.367分钟
每日圈数: 15.590043
详细信息
使用方式:
暂无
2D轨道图
3D轨道图
轨道高度分析图
轨道倾角分析图
轨道综合分析图
查看轨道综合分析图